| time (UTC) | temp C | wind direction | speed KPH | gust KPH | rain 1hr cm | rain 24hr cm | rain mn cm | humidity % | barometer mb |
| 20260507195703 | 20 | 208 | 11.3 | 24.1 | 0.00 | 0.00 | 0.00 | 45 | 1013.8 |
| 20260507195403 | 21 | 205 | 9.7 | 25.7 | 0.00 | 0.00 | 0.00 | 43 | 1013.8 |
| 20260507195103 | 21 | 207 | 9.7 | 25.7 | 0.00 | 0.00 | 0.00 | 45 | 1013.9 |
| 20260507195016 | 21 | 205 | 9.7 | 25.7 | 0.00 | 0.00 | 0.00 | 45 | 1013.9 |
| 20260507194503 | 20 | 199 | 9.7 | 32.2 | 0.00 | 0.00 | 0.00 | 45 | 1014.0 |
| 20260507194203 | 20 | 199 | 9.7 | 32.2 | 0.00 | 0.00 | 0.00 | 46 | 1014.0 |
| 20260507193903 | 21 | 201 | 8.0 | 25.7 | 0.00 | 0.00 | 0.00 | 46 | 1013.9 |
| 20260507193603 | 21 | 209 | 6.4 | 22.5 | 0.00 | 0.00 | 0.00 | 48 | 1014.1 |
| 20260507193303 | 21 | 209 | 6.4 | 20.9 | 0.00 | 0.00 | 0.00 | 47 | 1014.2 |
| 20260507193003 | 20 | 211 | 9.7 | 27.4 | 0.00 | 0.00 | 0.00 | 47 | 1014.2 |
| 20260507192703 | 20 | 211 | 11.3 | 27.4 | 0.00 | 0.00 | 0.00 | 48 | 1014.2 |
| 20260507192403 | 20 | 212 | 11.3 | 27.4 | 0.00 | 0.00 | 0.00 | 47 | 1014.3 |
| 20260507192316 | 20 | 214 | 11.3 | 27.4 | 0.00 | 0.00 | 0.00 | 47 | 1014.3 |
| 20260507191803 | 20 | 217 | 9.7 | 25.7 | 0.00 | 0.00 | 0.00 | 46 | 1014.4 |
| 20260507191503 | 20 | 217 | 11.3 | 25.7 | 0.00 | 0.00 | 0.00 | 47 | 1014.5 |
| 20260507191203 | 20 | 214 | 11.3 | 29.0 | 0.00 | 0.00 | 0.00 | 46 | 1014.4 |
| 20260507190903 | 20 | 214 | 11.3 | 29.0 | 0.00 | 0.00 | 0.00 | 45 | 1014.6 |
| 20260507190817 | 20 | 213 | 11.3 | 29.0 | 0.00 | 0.00 | 0.00 | 45 | 1014.5 |
| 20260507190517 | 20 | 212 | 9.7 | 29.0 | 0.00 | 0.00 | 0.00 | 46 | 1014.5 |
| 20260507190004 | 20 | 208 | 8.0 | 27.4 | 0.00 | 0.00 | 0.00 | 46 | 1014.8 |
| 20260507185703 | 20 | 205 | 8.0 | 27.4 | 0.00 | 0.00 | 0.00 | 45 | 1014.9 |
| 20260507185403 | 20 | 208 | 8.0 | 29.0 | 0.00 | 0.00 | 0.00 | 49 | 1014.8 |
| 20260507185103 | 20 | 216 | 9.7 | 29.0 | 0.00 | 0.00 | 0.00 | 47 | 1014.9 |
| 20260507184803 | 20 | 218 | 9.7 | 29.0 | 0.00 | 0.00 | 0.00 | 49 | 1014.9 |
| 20260507184503 | 20 | 216 | 9.7 | 25.7 | 0.00 | 0.00 | 0.00 | 49 | 1015.0 |
| 20260507184203 | 20 | 213 | 11.3 | 27.4 | 0.00 | 0.00 | 0.00 | 48 | 1015.0 |
| 20260507183903 | 19 | 211 | 9.7 | 27.4 | 0.00 | 0.00 | 0.00 | 50 | 1015.1 |
| 20260507183603 | 19 | 209 | 9.7 | 27.4 | 0.00 | 0.00 | 0.00 | 48 | 1015.1 |
| 20260507183303 | 20 | 213 | 9.7 | 27.4 | 0.00 | 0.00 | 0.00 | 47 | 1015.3 |
| 20260507183003 | 20 | 213 | 9.7 | 25.7 | 0.00 | 0.00 | 0.00 | 49 | 1015.3 |
| 20260507182916 | 20 | 212 | 8.0 | 25.7 | 0.00 | 0.00 | 0.00 | 48 | 1015.3 |
| 20260507182616 | 20 | 211 | 8.0 | 25.7 | 0.00 | 0.00 | 0.00 | 48 | 1015.3 |
| 20260507182104 | 19 | 205 | 8.0 | 20.9 | 0.00 | 0.00 | 0.00 | 49 | 1015.4 |
| 20260507181803 | 20 | 204 | 6.4 | 19.3 | 0.00 | 0.00 | 0.00 | 49 | 1015.5 |
| 20260507181503 | 20 | 203 | 8.0 | 22.5 | 0.00 | 0.00 | 0.00 | 47 | 1015.6 |
| 20260507181417 | 20 | 200 | 6.4 | 22.5 | 0.00 | 0.00 | 0.00 | 49 | 1015.6 |
| 20260507181117 | 20 | 201 | 8.0 | 27.4 | 0.00 | 0.00 | 0.00 | 50 | 1015.7 |
| 20260507180603 | 19 | 210 | 8.0 | 27.4 | 0.00 | 0.00 | 0.00 | 52 | 1015.7 |
| 20260507180517 | 19 | 211 | 8.0 | 27.4 | 0.00 | 0.00 | 0.00 | 51 | 1015.7 |
| 20260507180003 | 19 | 217 | 9.7 | 25.7 | 0.00 | 0.00 | 0.00 | 50 | 1015.9 |
| 20260507175703 | 19 | 213 | 8.0 | 25.7 | 0.00 | 0.00 | 0.00 | 50 | 1015.8 |
| 20260507175404 | 19 | 215 | 8.0 | 25.7 | 0.00 | 0.00 | 0.00 | 50 | 1015.8 |
| 20260507175103 | 19 | 215 | 6.4 | 19.3 | 0.00 | 0.00 | 0.00 | 53 | 1015.9 |
| 20260507174803 | 18 | 212 | 6.4 | 24.1 | 0.00 | 0.00 | 0.00 | 51 | 1015.9 |
| 20260507174503 | 18 | 212 | 8.0 | 24.1 | 0.00 | 0.00 | 0.00 | 53 | 1016.0 |
| 20260507174203 | 18 | 211 | 8.0 | 24.1 | 0.00 | 0.00 | 0.00 | 53 | 1016.1 |
| 20260507173903 | 18 | 211 | 8.0 | 19.3 | 0.00 | 0.00 | 0.00 | 51 | 1016.1 |
| 20260507173603 | 18 | 212 | 8.0 | 30.6 | 0.00 | 0.00 | 0.00 | 51 | 1016.1 |
| 20260507173303 | 18 | 213 | 8.0 | 30.6 | 0.00 | 0.00 | 0.00 | 52 | 1016.2 |
| 20260507173004 | 18 | 217 | 8.0 | 30.6 | 0.00 | 0.00 | 0.00 | 51 | 1016.2 |
| 20260507172918 | 18 | 221 | 8.0 | 30.6 | 0.00 | 0.00 | 0.00 | 50 | 1016.2 |
| 20260507172403 | 18 | 222 | 8.0 | 20.9 | 0.00 | 0.00 | 0.00 | 52 | 1016.3 |
| 20260507172103 | 18 | 223 | 8.0 | 20.9 | 0.00 | 0.00 | 0.00 | 51 | 1016.4 |
| 20260507171803 | 18 | 213 | 6.4 | 20.9 | 0.00 | 0.00 | 0.00 | 54 | 1016.4 |
| 20260507171503 | 18 | 213 | 6.4 | 20.9 | 0.00 | 0.00 | 0.00 | 52 | 1016.6 |
| 20260507171417 | 18 | 214 | 6.4 | 20.9 | 0.00 | 0.00 | 0.00 | 52 | 1016.4 |
| 20260507170903 | 18 | 213 | 8.0 | 29.0 | 0.00 | 0.00 | 0.00 | 51 | 1016.4 |
| 20260507170603 | 18 | 212 | 9.7 | 29.0 | 0.00 | 0.00 | 0.00 | 53 | 1016.4 |
| 20260507170303 | 17 | 212 | 9.7 | 29.0 | 0.00 | 0.00 | 0.00 | 53 | 1016.5 |
| 20260507170003 | 18 | 213 | 8.0 | 29.0 | 0.00 | 0.00 | 0.00 | 51 | 1016.6 |
| 20260507165703 | 18 | 214 | 8.0 | 22.5 | 0.00 | 0.00 | 0.00 | 55 | 1016.7 |
| 20260507165403 | 18 | 216 | 8.0 | 22.5 | 0.00 | 0.00 | 0.00 | 52 | 1016.8 |
| 20260507165103 | 18 | 226 | 8.0 | 22.5 | 0.00 | 0.00 | 0.00 | 52 | 1016.8 |
| 20260507164803 | 18 | 227 | 9.7 | 22.5 | 0.00 | 0.00 | 0.00 | 51 | 1016.8 |
| 20260507164503 | 17 | 224 | 9.7 | 22.5 | 0.00 | 0.00 | 0.00 | 53 | 1016.8 |
| 20260507164203 | 17 | 214 | 8.0 | 22.5 | 0.00 | 0.00 | 0.00 | 52 | 1016.8 |
| 20260507163903 | 17 | 209 | 8.0 | 22.5 | 0.00 | 0.00 | 0.00 | 53 | 1016.9 |
| 20260507163603 | 17 | 214 | 9.7 | 24.1 | 0.00 | 0.00 | 0.00 | 52 | 1017.0 |
| 20260507163303 | 17 | 213 | 9.7 | 24.1 | 0.00 | 0.00 | 0.00 | 53 | 1017.0 |
| 20260507163003 | 17 | 215 | 11.3 | 30.6 | 0.00 | 0.00 | 0.00 | 54 | 1017.1 |
| 20260507162703 | 17 | 215 | 9.7 | 30.6 | 0.00 | 0.00 | 0.00 | 52 | 1017.0 |
| 20260507162403 | 17 | 221 | 8.0 | 30.6 | 0.00 | 0.00 | 0.00 | 52 | 1017.1 |
| 20260507162103 | 17 | 224 | 6.4 | 24.1 | 0.00 | 0.00 | 0.00 | 55 | 1017.0 |
| 20260507162017 | 17 | 224 | 6.4 | 17.7 | 0.00 | 0.00 | 0.00 | 53 | 1017.0 |
| 20260507161503 | 17 | 219 | 6.4 | 20.9 | 0.00 | 0.00 | 0.00 | 53 | 1017.0 |
| 20260507161203 | 17 | 221 | 6.4 | 20.9 | 0.00 | 0.00 | 0.00 | 54 | 1016.9 |
| 20260507161117 | 17 | 225 | 6.4 | 20.9 | 0.00 | 0.00 | 0.00 | 55 | 1016.9 |
| 20260507160603 | 17 | 226 | 6.4 | 20.9 | 0.00 | 0.00 | 0.00 | 53 | 1017.0 |
| 20260507160303 | 17 | 222 | 6.4 | 20.9 | 0.00 | 0.00 | 0.00 | 53 | 1017.0 |
| 20260507160003 | 17 | 223 | 6.4 | 17.7 | 0.00 | 0.00 | 0.00 | 55 | 1017.0 |
| 20260507155703 | 17 | 221 | 8.0 | 19.3 | 0.00 | 0.00 | 0.00 | 56 | 1017.0 |
| 20260507155403 | 16 | 221 | 8.0 | 20.9 | 0.00 | 0.00 | 0.00 | 55 | 1017.2 |
| 20260507155317 | 16 | 220 | 8.0 | 20.9 | 0.00 | 0.00 | 0.00 | 55 | 1017.2 |
| 20260507155017 | 16 | 215 | 8.0 | 20.9 | 0.00 | 0.00 | 0.00 | 56 | 1017.1 |
| 20260507154503 | 16 | 209 | 6.4 | 22.5 | 0.00 | 0.00 | 0.00 | 57 | 1017.2 |
| 20260507154203 | 16 | 210 | 6.4 | 22.5 | 0.00 | 0.00 | 0.00 | 57 | 1017.3 |
| 20260507153903 | 16 | 214 | 8.0 | 22.5 | 0.00 | 0.00 | 0.00 | 58 | 1017.3 |
| 20260507153603 | 16 | 217 | 8.0 | 22.5 | 0.00 | 0.00 | 0.00 | 58 | 1017.4 |
| 20260507153303 | 15 | 214 | 8.0 | 20.9 | 0.00 | 0.00 | 0.00 | 58 | 1017.3 |
| 20260507153218 | 15 | 215 | 9.7 | 20.9 | 0.00 | 0.00 | 0.00 | 58 | 1017.3 |
| 20260507152703 | 15 | 209 | 8.0 | 22.5 | 0.00 | 0.00 | 0.00 | 59 | 1017.4 |
| 20260507152403 | 15 | 209 | 9.7 | 22.5 | 0.00 | 0.00 | 0.00 | 59 | 1017.4 |
| 20260507152317 | 15 | 210 | 9.7 | 22.5 | 0.00 | 0.00 | 0.00 | 59 | 1017.4 |
| 20260507151803 | 15 | 209 | 8.0 | 22.5 | 0.00 | 0.00 | 0.00 | 60 | 1017.4 |
| 20260507151504 | 15 | 209 | 6.4 | 19.3 | 0.00 | 0.00 | 0.00 | 61 | 1017.4 |
| 20260507151203 | 15 | 210 | 6.4 | 19.3 | 0.00 | 0.00 | 0.00 | 63 | 1017.4 |
| 20260507150903 | 15 | 211 | 6.4 | 19.3 | 0.00 | 0.00 | 0.00 | 62 | 1017.4 |
| 20260507150603 | 15 | 210 | 6.4 | 19.3 | 0.00 | 0.00 | 0.00 | 63 | 1017.4 |
| 20260507150303 | 15 | 209 | 6.4 | 19.3 | 0.00 | 0.00 | 0.00 | 62 | 1017.5 |
| 20260507150217 | 15 | 208 | 6.4 | 19.3 | 0.00 | 0.00 | 0.00 | 63 | 1017.5 |
| 20260507145703 | 15 | 207 | 6.4 | 19.3 | 0.00 | 0.00 | 0.00 | 64 | 1017.5 |
| 20260507145403 | 15 | 208 | 4.8 | 12.9 | 0.00 | 0.00 | 0.00 | 64 | 1017.6 |
| 20260507145103 | 15 | 208 | 4.8 | 12.9 | 0.00 | 0.00 | 0.00 | 64 | 1017.6 |
| 20260507144803 | 15 | 207 | 3.2 | 11.3 | 0.00 | 0.00 | 0.00 | 65 | 1017.6 |
| 20260507144503 | 14 | 222 | 4.8 | 16.1 | 0.00 | 0.00 | 0.00 | 66 | 1017.6 |
| 20260507144203 | 14 | 218 | 4.8 | 16.1 | 0.00 | 0.00 | 0.00 | 65 | 1017.6 |
| 20260507144118 | 14 | 218 | 4.8 | 16.1 | 0.00 | 0.00 | 0.00 | 65 | 1017.6 |
| 20260507143603 | 13 | 218 | 4.8 | 16.1 | 0.00 | 0.00 | 0.00 | 68 | 1017.7 |
| 20260507143303 | 13 | 210 | 4.8 | 14.5 | 0.00 | 0.00 | 0.00 | 68 | 1017.6 |
| 20260507143003 | 13 | 208 | 4.8 | 14.5 | 0.00 | 0.00 | 0.00 | 67 | 1017.6 |
| 20260507142703 | 13 | 204 | 3.2 | 12.9 | 0.00 | 0.00 | 0.00 | 67 | 1017.6 |
| 20260507142403 | 13 | 199 | 3.2 | 9.7 | 0.00 | 0.00 | 0.00 | 69 | 1017.6 |
| 20260507142103 | 13 | 204 | 3.2 | 9.7 | 0.00 | 0.00 | 0.00 | 68 | 1017.6 |
| 20260507141803 | 13 | 215 | 3.2 | 9.7 | 0.00 | 0.00 | 0.00 | 70 | 1017.6 |
| 20260507141504 | 12 | 212 | 3.2 | 9.7 | 0.00 | 0.00 | 0.00 | 71 | 1017.7 |
| 20260507141418 | 12 | 213 | 3.2 | 9.7 | 0.00 | 0.00 | 0.00 | 71 | 1017.7 |
| 20260507140903 | 12 | 212 | 3.2 | 11.3 | 0.00 | 0.00 | 0.00 | 70 | 1017.7 |
| 20260507140603 | 12 | 223 | 4.8 | 12.9 | 0.00 | 0.00 | 0.00 | 70 | 1017.7 |
| 20260507140303 | 12 | 225 | 4.8 | 12.9 | 0.00 | 0.00 | 0.00 | 70 | 1017.7 |
| 20260507140003 | 12 | 223 | 4.8 | 12.9 | 0.00 | 0.00 | 0.00 | 70 | 1017.8 |
| 20260507135703 | 12 | 216 | 3.2 | 11.3 | 0.00 | 0.00 | 0.00 | 72 | 1017.8 |
| 20260507135403 | 12 | 225 | 4.8 | 11.3 | 0.00 | 0.00 | 0.00 | 71 | 1017.8 |
| 20260507135103 | 12 | 221 | 3.2 | 11.3 | 0.00 | 0.00 | 0.00 | 72 | 1017.8 |
| 20260507134803 | 12 | 216 | 3.2 | 11.3 | 0.00 | 0.00 | 0.00 | 72 | 1017.8 |
| 20260507134503 | 11 | 199 | 1.6 | 4.8 | 0.00 | 0.00 | 0.00 | 73 | 1017.8 |
| 20260507134203 | 11 | 199 | 1.6 | 4.8 | 0.00 | 0.00 | 0.00 | 74 | 1017.9 |
| 20260507133903 | 11 | 201 | 1.6 | 8.0 | 0.00 | 0.00 | 0.00 | 74 | 1017.9 |
| 20260507133604 | 11 | 205 | 3.2 | 12.9 | 0.00 | 0.00 | 0.00 | 74 | 1017.8 |
| 20260507133303 | 11 | 205 | 3.2 | 12.9 | 0.00 | 0.00 | 0.00 | 75 | 1017.9 |
| 20260507133217 | 11 | 205 | 3.2 | 12.9 | 0.00 | 0.00 | 0.00 | 75 | 1017.9 |
| 20260507132703 | 10 | 200 | 1.6 | 11.3 | 0.00 | 0.00 | 0.00 | 76 | 1017.9 |
| 20260507132403 | 10 | 200 | 1.6 | 6.4 | 0.00 | 0.00 | 0.00 | 77 | 1017.9 |
| 20260507132103 | 10 | 204 | 1.6 | 6.4 | 0.00 | 0.00 | 0.00 | 77 | 1017.9 |
| 20260507131803 | 10 | 205 | 1.6 | 6.4 | 0.00 | 0.00 | 0.00 | 78 | 1018.0 |
| 20260507131503 | 9 | 205 | 1.6 | 6.4 | 0.00 | 0.00 | 0.00 | 78 | 1018.0 |
| 20260507131203 | 9 | 199 | 1.6 | 6.4 | 0.00 | 0.00 | 0.00 | 78 | 1018.0 |
| 20260507131117 | 9 | 197 | 1.6 | 6.4 | 0.00 | 0.00 | 0.00 | 78 | 1018.0 |
| 20260507130603 | 8 | 206 | 1.6 | 11.3 | 0.00 | 0.00 | 0.00 | 79 | 1018.0 |
| 20260507130303 | 8 | 206 | 1.6 | 11.3 | 0.00 | 0.00 | 0.00 | 79 | 1018.0 |
| 20260507130003 | 8 | 209 | 1.6 | 11.3 | 0.00 | 0.00 | 0.00 | 79 | 1018.0 |
| 20260507125703 | 8 | 197 | 0.0 | 3.2 | 0.00 | 0.00 | 0.00 | 80 | 1018.1 |
| 20260507125403 | 8 | 196 | 0.0 | 3.2 | 0.00 | 0.00 | 0.00 | 80 | 1018.0 |
| 20260507125318 | 8 | 196 | 0.0 | 3.2 | 0.00 | 0.00 | 0.00 | 80 | 1018.0 |
| 20260507125018 | 7 | 195 | 0.0 | 4.8 | 0.00 | 0.00 | 0.00 | 81 | 1018.0 |
| 20260507124718 | 7 | 195 | 0.0 | 4.8 | 0.00 | 0.00 | 0.00 | 81 | 1018.0 |
| 20260507124203 | 7 | 198 | 1.6 | 4.8 | 0.00 | 0.00 | 0.00 | 82 | 1018.1 |
| 20260507123903 | 7 | 199 | 0.0 | 4.8 | 0.00 | 0.00 | 0.00 | 82 | 1018.1 |
| 20260507123603 | 7 | 198 | 0.0 | 4.8 | 0.00 | 0.00 | 0.00 | 83 | 1018.0 |
| 20260507123303 | 7 | 194 | 0.0 | 3.2 | 0.00 | 0.00 | 0.00 | 83 | 1018.0 |
| 20260507123003 | 6 | 194 | 0.0 | 3.2 | 0.00 | 0.00 | 0.00 | 83 | 1018.0 |
| 20260507122705 | 6 | 194 | 0.0 | 3.2 | 0.00 | 0.00 | 0.00 | 83 | 1018.0 |
| 20260507122618 | 6 | 194 | 0.0 | 1.6 | 0.00 | 0.00 | 0.00 | 84 | 1018.0 |
| 20260507122318 | 6 | 195 | 0.0 | 1.6 | 0.00 | 0.00 | 0.00 | 84 | 1018.0 |
| 20260507121803 | 6 | 196 | 0.0 | 3.2 | 0.00 | 0.00 | 0.00 | 84 | 1017.9 |
| 20260507121503 | 6 | 196 | 0.0 | 3.2 | 0.00 | 0.00 | 0.00 | 85 | 1017.9 |
| 20260507121203 | 6 | 195 | 0.0 | 1.6 | 0.00 | 0.00 | 0.00 | 85 | 1017.9 |
| 20260507120903 | 6 | 197 | 0.0 | 3.2 | 0.00 | 0.00 | 0.00 | 85 | 1017.9 |
| 20260507120603 | 6 | 198 | 0.0 | 3.2 | 0.00 | 0.00 | 0.00 | 85 | 1017.9 |
| 20260507120303 | 6 | 197 | 0.0 | 3.2 | 0.00 | 0.00 | 0.00 | 86 | 1017.9 |
| 20260507120004 | 5 | 189 | 0.0 | 3.2 | 0.00 | 0.00 | 0.00 | 86 | 1017.9 |
| 20260507115703 | 5 | 189 | 0.0 | 3.2 | 0.00 | 0.00 | 0.00 | 86 | 1017.9 |
| 20260507115403 | 5 | 189 | 0.0 | 3.2 | 0.00 | 0.00 | 0.00 | 87 | 1017.9 |
| 20260507115103 | 5 | 188 | 0.0 | 1.6 | 0.00 | 0.00 | 0.00 | 87 | 1017.9 |
| 20260507115018 | 5 | 188 | 0.0 | 1.6 | 0.00 | 0.00 | 0.00 | 87 | 1017.9 |
| 20260507114503 | 5 | 188 | 0.0 | 1.6 | 0.00 | 0.00 | 0.00 | 88 | 1017.8 |
| 20260507114203 | 5 | 188 | 0.0 | 1.6 | 0.00 | 0.00 | 0.00 | 88 | 1017.8 |
| 20260507113903 | 5 | 188 | 0.0 | 1.6 | 0.00 | 0.00 | 0.00 | 88 | 1017.8 |
| 20260507113603 | 5 | 0 | 0.0 | 0.0 | 0.00 | 0.00 | 0.00 | 88 | 1017.8 |
| 20260507113303 | 5 | 0 | 0.0 | 0.0 | 0.00 | 0.00 | 0.00 | 88 | 1017.8 |
| 20260507113004 | 5 | 0 | 0.0 | 0.0 | 0.00 | 0.00 | 0.00 | 88 | 1017.7 |
| 20260507112703 | 5 | 0 | 0.0 | 0.0 | 0.00 | 0.00 | 0.00 | 88 | 1017.7 |
| 20260507112403 | 5 | 0 | 0.0 | 0.0 | 0.00 | 0.00 | 0.00 | 88 | 1017.7 |
| 20260507112103 | 5 | 0 | 0.0 | 0.0 | 0.00 | 0.00 | 0.00 | 88 | 1017.7 |
| 20260507111803 | 5 | 0 | 0.0 | 0.0 | 0.00 | 0.00 | 0.00 | 88 | 1017.7 |
| 20260507111504 | 5 | 0 | 0.0 | 0.0 | 0.00 | 0.00 | 0.00 | 88 | 1017.7 |
| 20260507111203 | 5 | 0 | 0.0 | 0.0 | 0.00 | 0.00 | 0.00 | 88 | 1017.6 |
| 20260507110903 | 5 | 0 | 0.0 | 0.0 | 0.00 | 0.00 | 0.00 | 88 | 1017.6 |
| 20260507110603 | 5 | 0 | 0.0 | 0.0 | 0.00 | 0.00 | 0.00 | 87 | 1017.5 |
| 20260507110518 | 5 | 0 | 0.0 | 0.0 | 0.00 | 0.00 | 0.00 | 87 | 1017.5 |
| 20260507110003 | 5 | 185 | 0.0 | 3.2 | 0.00 | 0.00 | 0.00 | 87 | 1017.6 |
| 20260507105703 | 5 | 183 | 0.0 | 3.2 | 0.00 | 0.00 | 0.00 | 88 | 1017.5 |
| 20260507105403 | 5 | 182 | 0.0 | 3.2 | 0.00 | 0.00 | 0.00 | 88 | 1017.6 |
| 20260507105103 | 5 | 172 | 0.0 | 1.6 | 0.00 | 0.00 | 0.00 | 88 | 1017.5 |
| 20260507104803 | 5 | 170 | 0.0 | 1.6 | 0.00 | 0.00 | 0.00 | 88 | 1017.6 |
| 20260507104503 | 5 | 0 | 0.0 | 0.0 | 0.00 | 0.00 | 0.00 | 89 | 1017.6 |
| 20260507104204 | 5 | 0 | 0.0 | 0.0 | 0.00 | 0.00 | 0.00 | 89 | 1017.6 |
| 20260507103903 | 5 | 0 | 0.0 | 0.0 | 0.00 | 0.00 | 0.00 | 89 | 1017.5 |
| 20260507103603 | 5 | 0 | 0.0 | 0.0 | 0.00 | 0.00 | 0.00 | 90 | 1017.6 |
| 20260507103303 | 5 | 0 | 0.0 | 0.0 | 0.00 | 0.00 | 0.00 | 90 | 1017.6 |
| 20260507103003 | 5 | 0 | 0.0 | 0.0 | 0.00 | 0.00 | 0.00 | 90 | 1017.6 |
| 20260507102703 | 5 | 0 | 0.0 | 0.0 | 0.00 | 0.00 | 0.00 | 90 | 1017.6 |
| 20260507102403 | 5 | 0 | 0.0 | 0.0 | 0.00 | 0.00 | 0.00 | 89 | 1017.6 |
| 20260507102103 | 5 | 0 | 0.0 | 0.0 | 0.00 | 0.00 | 0.00 | 89 | 1017.6 |
| 20260507102017 | 5 | 0 | 0.0 | 0.0 | 0.00 | 0.00 | 0.00 | 89 | 1017.6 |
| 20260507101503 | 5 | 0 | 0.0 | 0.0 | 0.00 | 0.00 | 0.00 | 89 | 1017.7 |
| 20260507101203 | 5 | 0 | 0.0 | 0.0 | 0.00 | 0.00 | 0.00 | 88 | 1017.7 |
| 20260507100903 | 5 | 0 | 0.0 | 0.0 | 0.00 | 0.00 | 0.00 | 88 | 1017.8 |
| 20260507100603 | 5 | 0 | 0.0 | 0.0 | 0.00 | 0.00 | 0.00 | 88 | 1017.8 |
| 20260507100303 | 5 | 0 | 0.0 | 0.0 | 0.00 | 0.00 | 0.00 | 87 | 1017.9 |
| 20260507100003 | 5 | 0 | 0.0 | 0.0 | 0.00 | 0.00 | 0.00 | 87 | 1017.9 |
| 20260507095703 | 5 | 0 | 0.0 | 0.0 | 0.00 | 0.00 | 0.00 | 87 | 1017.9 |
| 20260507095403 | 5 | 200 | 0.0 | 3.2 | 0.00 | 0.00 | 0.00 | 87 | 1017.9 |
| 20260507095103 | 5 | 203 | 0.0 | 3.2 | 0.00 | 0.00 | 0.00 | 87 | 1017.9 |
| 20260507094803 | 6 | 202 | 0.0 | 3.2 | 0.00 | 0.00 | 0.00 | 87 | 1017.9 |
| 20260507094503 | 6 | 203 | 0.0 | 3.2 | 0.00 | 0.00 | 0.00 | 88 | 1017.9 |
| 20260507094203 | 6 | 198 | 0.0 | 3.2 | 0.00 | 0.00 | 0.00 | 87 | 1018.0 |
| 20260507093903 | 6 | 198 | 0.0 | 3.2 | 0.00 | 0.00 | 0.00 | 87 | 1017.9 |
| 20260507093603 | 6 | 198 | 0.0 | 3.2 | 0.00 | 0.00 | 0.00 | 87 | 1018.0 |
| 20260507093303 | 6 | 191 | 0.0 | 1.6 | 0.00 | 0.00 | 0.00 | 87 | 1018.0 |
| 20260507093217 | 6 | 191 | 0.0 | 1.6 | 0.00 | 0.00 | 0.00 | 87 | 1018.0 |
| 20260507092703 | 6 | 191 | 0.0 | 1.6 | 0.00 | 0.00 | 0.00 | 87 | 1018.0 |
| 20260507092403 | 6 | 191 | 0.0 | 1.6 | 0.00 | 0.00 | 0.00 | 87 | 1018.0 |
| 20260507092103 | 6 | 198 | 0.0 | 3.2 | 0.00 | 0.00 | 0.00 | 87 | 1018.0 |
| 20260507092016 | 6 | 198 | 0.0 | 3.2 | 0.00 | 0.00 | 0.00 | 86 | 1018.0 |
| 20260507091503 | 6 | 198 | 0.0 | 3.2 | 0.00 | 0.00 | 0.00 | 86 | 1018.0 |
| 20260507091203 | 6 | 197 | 0.0 | 3.2 | 0.00 | 0.00 | 0.00 | 86 | 1018.0 |
| 20260507091118 | 6 | 196 | 0.0 | 3.2 | 0.00 | 0.00 | 0.00 | 86 | 1018.0 |
| 20260507090603 | 6 | 192 | 0.0 | 3.2 | 0.00 | 0.00 | 0.00 | 86 | 1018.0 |
| 20260507090303 | 6 | 185 | 0.0 | 3.2 | 0.00 | 0.00 | 0.00 | 86 | 1017.9 |
| 20260507090004 | 6 | 183 | 0.0 | 3.2 | 0.00 | 0.00 | 0.00 | 87 | 1017.9 |
| 20260507085917 | 6 | 183 | 0.0 | 3.2 | 0.00 | 0.00 | 0.00 | 87 | 1018.0 |
| 20260507085617 | 6 | 182 | 0.0 | 3.2 | 0.00 | 0.00 | 0.00 | 87 | 1018.0 |
| 20260507084503 | 6 | 179 | 0.0 | 1.6 | 0.00 | 0.00 | 0.00 | 88 | 1017.9 |
| 20260507084418 | 6 | 182 | 0.0 | 1.6 | 0.00 | 0.00 | 0.00 | 88 | 1017.9 |
| 20260507083903 | 6 | 191 | 0.0 | 1.6 | 0.00 | 0.00 | 0.00 | 88 | 1017.8 |
| 20260507083817 | 6 | 191 | 0.0 | 1.6 | 0.00 | 0.00 | 0.00 | 88 | 1017.9 |
| 20260507083303 | 6 | 198 | 0.0 | 3.2 | 0.00 | 0.00 | 0.00 | 89 | 1017.9 |
| 20260507083004 | 6 | 198 | 0.0 | 3.2 | 0.00 | 0.03 | 0.00 | 89 | 1017.9 |
| 20260507082703 | 6 | 195 | 0.0 | 1.6 | 0.00 | 0.03 | 0.00 | 89 | 1017.9 |
| 20260507082403 | 6 | 197 | 0.0 | 3.2 | 0.00 | 0.03 | 0.00 | 89 | 1017.9 |
| 20260507082103 | 6 | 195 | 0.0 | 3.2 | 0.00 | 0.03 | 0.00 | 90 | 1018.0 |
| 20260507082018 | 6 | 195 | 0.0 | 3.2 | 0.00 | 0.03 | 0.00 | 90 | 1018.0 |
| 20260507081503 | 6 | 192 | 0.0 | 3.2 | 0.00 | 0.03 | 0.00 | 90 | 1018.0 |
| 20260507081203 | 6 | 187 | 0.0 | 1.6 | 0.00 | 0.03 | 0.00 | 90 | 1018.0 |
| 20260507080903 | 6 | 0 | 0.0 | 0.0 | 0.00 | 0.05 | 0.00 | 90 | 1018.0 |
| 20260507080603 | 6 | 0 | 0.0 | 0.0 | 0.00 | 0.05 | 0.00 | 91 | 1018.0 |
| 20260507080517 | 6 | 0 | 0.0 | 0.0 | 0.00 | 0.05 | 0.00 | 91 | 1018.0 |
| 20260507080219 | 6 | 0 | 0.0 | 0.0 | 0.00 | 0.05 | 0.00 | 91 | 1018.0 |
| 20260507075918 | 6 | 0 | 0.0 | 0.0 | 0.00 | 0.05 | 0.00 | 91 | 1018.0 |
| 20260507075403 | 6 | 181 | 0.0 | 1.6 | 0.00 | 0.05 | 0.00 | 91 | 1018.0 |
| 20260507075103 | 6 | 181 | 0.0 | 1.6 | 0.00 | 0.05 | 0.00 | 91 | 1017.9 |
| 20260507074803 | 6 | 181 | 0.0 | 1.6 | 0.00 | 0.05 | 0.00 | 91 | 1018.0 |
| 20260507074718 | 6 | 181 | 0.0 | 1.6 | 0.00 | 0.05 | 0.00 | 91 | 1018.0 |
| 20260507074203 | 6 | 0 | 0.0 | 0.0 | 0.00 | 0.05 | 0.00 | 90 | 1018.1 |
| 20260507073903 | 6 | 0 | 0.0 | 0.0 | 0.00 | 0.05 | 0.00 | 90 | 1018.0 |
| 20260507073603 | 6 | 0 | 0.0 | 0.0 | 0.00 | 0.05 | 0.00 | 90 | 1018.1 |
| 20260507073303 | 6 | 0 | 0.0 | 0.0 | 0.00 | 0.05 | 0.00 | 90 | 1018.1 |
| 20260507073003 | 6 | 0 | 0.0 | 0.0 | 0.00 | 0.05 | 0.00 | 89 | 1018.1 |
| 20260507072703 | 6 | 0 | 0.0 | 0.0 | 0.00 | 0.05 | 0.00 | 89 | 1018.1 |
| 20260507072403 | 6 | 0 | 0.0 | 0.0 | 0.00 | 0.05 | 0.00 | 89 | 1018.1 |
| 20260507072103 | 6 | 0 | 0.0 | 0.0 | 0.00 | 0.05 | 0.00 | 89 | 1018.1 |
| 20260507071804 | 6 | 0 | 0.0 | 0.0 | 0.00 | 0.05 | 0.00 | 88 | 1018.1 |
| 20260507071717 | 6 | 0 | 0.0 | 0.0 | 0.00 | 0.05 | 0.00 | 88 | 1018.1 |
| 20260507071203 | 6 | 0 | 0.0 | 0.0 | 0.00 | 0.05 | 0.00 | 87 | 1018.2 |
| 20260507070903 | 6 | 0 | 0.0 | 0.0 | 0.00 | 0.05 | 0.00 | 87 | 1018.2 |
| 20260507070818 | 6 | 0 | 0.0 | 0.0 | 0.00 | 0.05 | 0.00 | 87 | 1018.2 |
| 20260507070303 | 6 | 0 | 0.0 | 0.0 | 0.00 | 0.05 | 0.00 | 86 | 1018.3 |
| 20260507070218 | 6 | 0 | 0.0 | 0.0 | 0.00 | 0.05 | 0.00 | 86 | 1018.3 |
| 20260507065703 | 7 | 192 | 0.0 | 1.6 | 0.00 | 0.05 | 0.00 | 86 | 1018.3 |
| 20260507065403 | 7 | 193 | 0.0 | 1.6 | 0.00 | 0.08 | 0.00 | 86 | 1018.4 |
| 20260507065103 | 7 | 194 | 0.0 | 1.6 | 0.00 | 0.08 | 0.00 | 86 | 1018.4 |
| 20260507064803 | 7 | 195 | 0.0 | 1.6 | 0.00 | 0.08 | 0.00 | 87 | 1018.4 |
| 20260507064717 | 7 | 195 | 0.0 | 1.6 | 0.00 | 0.08 | 0.00 | 87 | 1018.5 |
| 20260507064203 | 7 | 195 | 0.0 | 3.2 | 0.00 | 0.08 | 0.00 | 87 | 1018.5 |
| 20260507063903 | 7 | 194 | 0.0 | 3.2 | 0.00 | 0.08 | 0.00 | 87 | 1018.5 |
| 20260507063603 | 7 | 194 | 0.0 | 3.2 | 0.00 | 0.08 | 0.00 | 87 | 1018.5 |
| 20260507063518 | 7 | 194 | 0.0 | 3.2 | 0.00 | 0.08 | 0.00 | 87 | 1018.5 |
| 20260507063003 | 6 | 0 | 0.0 | 0.0 | 0.00 | 0.08 | 0.00 | 88 | 1018.5 |
| 20260507062703 | 6 | 0 | 0.0 | 0.0 | 0.00 | 0.08 | 0.00 | 88 | 1018.5 |
| 20260507062403 | 6 | 188 | 0.0 | 1.6 | 0.00 | 0.08 | 0.00 | 88 | 1018.5 |
| 20260507062103 | 6 | 188 | 0.0 | 1.6 | 0.00 | 0.08 | 0.00 | 89 | 1018.6 |
| 20260507061803 | 6 | 188 | 0.0 | 1.6 | 0.00 | 0.08 | 0.00 | 89 | 1018.6 |
| 20260507061503 | 6 | 0 | 0.0 | 0.0 | 0.00 | 0.08 | 0.00 | 90 | 1018.5 |
| 20260507061203 | 6 | 0 | 0.0 | 0.0 | 0.00 | 0.08 | 0.00 | 90 | 1018.6 |
| 20260507061118 | 6 | 188 | 0.0 | 1.6 | 0.00 | 0.08 | 0.00 | 90 | 1018.6 |
| 20260507060603 | 6 | 188 | 0.0 | 1.6 | 0.00 | 0.08 | 0.00 | 90 | 1018.7 |
| 20260507060303 | 6 | 188 | 0.0 | 1.6 | 0.00 | 0.08 | 0.00 | 90 | 1018.7 |
| 20260507060003 | 6 | 188 | 0.0 | 1.6 | 0.00 | 0.08 | 0.00 | 90 | 1018.7 |
| 20260507055703 | 6 | 188 | 0.0 | 1.6 | 0.00 | 0.08 | 0.00 | 90 | 1018.7 |
| 20260507055403 | 6 | 188 | 0.0 | 1.6 | 0.00 | 0.08 | 0.00 | 90 | 1018.7 |
| 20260507055317 | 6 | 188 | 0.0 | 1.6 | 0.00 | 0.08 | 0.00 | 90 | 1018.7 |
| 20260507054803 | 6 | 0 | 0.0 | 0.0 | 0.00 | 0.08 | 0.00 | 90 | 1018.7 |
| 20260507054503 | 6 | 0 | 0.0 | 0.0 | 0.00 | 0.08 | 0.00 | 89 | 1018.7 |
| 20260507054203 | 6 | 0 | 0.0 | 0.0 | 0.00 | 0.08 | 0.00 | 89 | 1018.7 |
| 20260507053903 | 6 | 0 | 0.0 | 0.0 | 0.00 | 0.08 | 0.00 | 89 | 1018.7 |
| 20260507053603 | 6 | 0 | 0.0 | 0.0 | 0.00 | 0.08 | 0.00 | 89 | 1018.7 |
| 20260507053303 | 6 | 0 | 0.0 | 0.0 | 0.00 | 0.08 | 0.00 | 89 | 1018.7 |
| 20260507053003 | 6 | 0 | 0.0 | 0.0 | 0.00 | 0.08 | 0.00 | 89 | 1018.7 |
| 20260507052703 | 6 | 0 | 0.0 | 0.0 | 0.00 | 0.08 | 0.00 | 89 | 1018.7 |
| 20260507052403 | 6 | 0 | 0.0 | 0.0 | 0.00 | 0.08 | 0.00 | 88 | 1018.7 |
| 20260507052103 | 6 | 0 | 0.0 | 0.0 | 0.00 | 0.08 | 0.00 | 87 | 1018.6 |
| 20260507051803 | 6 | 0 | 0.0 | 0.0 | 0.00 | 0.08 | 0.00 | 87 | 1018.6 |
| 20260507051503 | 6 | 0 | 0.0 | 0.0 | 0.00 | 0.08 | 0.00 | 87 | 1018.7 |
| 20260507051203 | 7 | 0 | 0.0 | 0.0 | 0.00 | 0.08 | 0.00 | 86 | 1018.7 |
| 20260507050903 | 7 | 0 | 0.0 | 0.0 | 0.00 | 0.08 | 0.00 | 85 | 1018.7 |
| 20260507050818 | 7 | 0 | 0.0 | 0.0 | 0.00 | 0.08 | 0.00 | 85 | 1018.7 |
| 20260507050518 | 7 | 0 | 0.0 | 0.0 | 0.00 | 0.08 | 0.00 | 84 | 1018.5 |
| 20260507050003 | 7 | 188 | 0.0 | 1.6 | 0.00 | 0.08 | 0.00 | 84 | 1018.6 |
| 20260507045703 | 7 | 188 | 0.0 | 1.6 | 0.00 | 0.08 | 0.08 | 84 | 1018.6 |
| 20260507045403 | 7 | 188 | 0.0 | 1.6 | 0.00 | 0.08 | 0.08 | 83 | 1018.7 |
| 20260507045103 | 7 | 188 | 0.0 | 1.6 | 0.00 | 0.08 | 0.08 | 83 | 1018.8 |
| 20260507044803 | 7 | 188 | 0.0 | 1.6 | 0.00 | 0.08 | 0.08 | 84 | 1018.8 |
| 20260507044503 | 7 | 188 | 0.0 | 1.6 | 0.00 | 0.08 | 0.08 | 84 | 1018.8 |
| 20260507044203 | 7 | 188 | 0.0 | 1.6 | 0.00 | 0.08 | 0.08 | 83 | 1018.8 |
| 20260507043903 | 7 | 188 | 0.0 | 1.6 | 0.00 | 0.08 | 0.08 | 83 | 1018.7 |
| 20260507043603 | 7 | 0 | 0.0 | 0.0 | 0.00 | 0.08 | 0.08 | 83 | 1018.7 |
| 20260507043303 | 7 | 0 | 0.0 | 0.0 | 0.00 | 0.08 | 0.08 | 83 | 1018.7 |
| 20260507043003 | 7 | 0 | 0.0 | 0.0 | 0.00 | 0.08 | 0.08 | 82 | 1018.6 |
| 20260507042703 | 7 | 0 | 0.0 | 0.0 | 0.00 | 0.08 | 0.08 | 81 | 1018.7 |
| 20260507042403 | 8 | 0 | 0.0 | 0.0 | 0.00 | 0.08 | 0.08 | 80 | 1018.7 |
| 20260507042103 | 8 | 0 | 0.0 | 0.0 | 0.00 | 0.08 | 0.08 | 80 | 1018.7 |
| 20260507041803 | 8 | 0 | 0.0 | 0.0 | 0.00 | 0.08 | 0.08 | 80 | 1018.7 |
| 20260507041503 | 8 | 198 | 0.0 | 3.2 | 0.00 | 0.08 | 0.08 | 79 | 1018.7 |
| 20260507041203 | 8 | 196 | 0.0 | 3.2 | 0.00 | 0.08 | 0.08 | 79 | 1018.7 |
| 20260507040903 | 8 | 192 | 0.0 | 3.2 | 0.00 | 0.08 | 0.08 | 79 | 1018.8 |
| 20260507040603 | 8 | 174 | 0.0 | 1.6 | 0.00 | 0.08 | 0.08 | 78 | 1018.8 |
| 20260507040303 | 8 | 170 | 0.0 | 1.6 | 0.00 | 0.08 | 0.08 | 77 | 1018.9 |
| 20260507040003 | 8 | 170 | 0.0 | 1.6 | 0.00 | 0.08 | 0.08 | 76 | 1018.9 |
| 20260507035703 | 8 | 170 | 0.0 | 1.6 | 0.00 | 0.08 | 0.08 | 76 | 1019.0 |
| 20260507035617 | 8 | 170 | 0.0 | 1.6 | 0.00 | 0.08 | 0.08 | 76 | 1019.0 |
| 20260507035316 | 8 | 170 | 0.0 | 1.6 | 0.00 | 0.08 | 0.08 | 76 | 1019.0 |
| 20260507034803 | 8 | 170 | 0.0 | 1.6 | 0.00 | 0.08 | 0.08 | 77 | 1019.0 |
| 20260507034503 | 8 | 0 | 0.0 | 0.0 | 0.00 | 0.08 | 0.08 | 77 | 1019.0 |
| 20260507034203 | 8 | 0 | 0.0 | 0.0 | 0.00 | 0.08 | 0.08 | 77 | 1019.0 |
| 20260507033903 | 8 | 0 | 0.0 | 0.0 | 0.00 | 0.08 | 0.08 | 75 | 1019.0 |
| 20260507033603 | 8 | 0 | 0.0 | 0.0 | 0.00 | 0.08 | 0.08 | 75 | 1018.9 |
| 20260507033517 | 8 | 0 | 0.0 | 0.0 | 0.00 | 0.08 | 0.08 | 74 | 1018.9 |
| 20260507033003 | 8 | 0 | 0.0 | 0.0 | 0.00 | 0.08 | 0.08 | 73 | 1018.9 |
| 20260507032703 | 8 | 0 | 0.0 | 0.0 | 0.00 | 0.08 | 0.08 | 71 | 1018.9 |
| 20260507032403 | 8 | 0 | 0.0 | 0.0 | 0.00 | 0.08 | 0.08 | 69 | 1018.8 |
| 20260507032103 | 8 | 0 | 0.0 | 0.0 | 0.00 | 0.08 | 0.08 | 69 | 1018.8 |
| 20260507031803 | 8 | 0 | 0.0 | 0.0 | 0.00 | 0.08 | 0.08 | 69 | 1018.8 |
| 20260507031503 | 8 | 0 | 0.0 | 0.0 | 0.00 | 0.08 | 0.08 | 70 | 1018.7 |
| 20260507031203 | 8 | 0 | 0.0 | 0.0 | 0.00 | 0.08 | 0.08 | 70 | 1018.7 |
| 20260507030903 | 8 | 0 | 0.0 | 0.0 | 0.00 | 0.08 | 0.08 | 70 | 1018.7 |
| 20260507030603 | 8 | 0 | 0.0 | 0.0 | 0.00 | 0.08 | 0.08 | 69 | 1018.7 |
| 20260507030303 | 8 | 0 | 0.0 | 0.0 | 0.00 | 0.08 | 0.08 | 69 | 1018.7 |
| 20260507030003 | 8 | 0 | 0.0 | 0.0 | 0.00 | 0.08 | 0.08 | 69 | 1018.6 |
| 20260507025703 | 8 | 0 | 0.0 | 0.0 | 0.00 | 0.08 | 0.08 | 70 | 1018.6 |
| 20260507025403 | 8 | 0 | 0.0 | 0.0 | 0.00 | 0.08 | 0.08 | 69 | 1018.7 |
| 20260507025103 | 9 | 0 | 0.0 | 0.0 | 0.00 | 0.08 | 0.08 | 69 | 1018.7 |
| 20260507024803 | 9 | 0 | 0.0 | 0.0 | 0.00 | 0.08 | 0.08 | 70 | 1018.7 |
| 20260507024503 | 9 | 0 | 0.0 | 0.0 | 0.00 | 0.08 | 0.08 | 70 | 1018.6 |
| 20260507024203 | 9 | 0 | 0.0 | 0.0 | 0.00 | 0.08 | 0.08 | 68 | 1018.5 |
| 20260507023903 | 9 | 0 | 0.0 | 0.0 | 0.00 | 0.08 | 0.08 | 68 | 1018.5 |
| 20260507023817 | 9 | 0 | 0.0 | 0.0 | 0.00 | 0.08 | 0.08 | 66 | 1018.5 |
| 20260507023303 | 10 | 0 | 0.0 | 0.0 | 0.00 | 0.08 | 0.08 | 64 | 1018.5 |
| 20260507023219 | 10 | 0 | 0.0 | 0.0 | 0.00 | 0.08 | 0.08 | 64 | 1018.5 |
| 20260507022918 | 10 | 0 | 0.0 | 0.0 | 0.00 | 0.08 | 0.08 | 63 | 1018.5 |
| 20260507022403 | 10 | 0 | 0.0 | 0.0 | 0.00 | 0.08 | 0.08 | 61 | 1018.5 |
| 20260507022103 | 10 | 0 | 0.0 | 0.0 | 0.00 | 0.08 | 0.08 | 61 | 1018.5 |
| 20260507021803 | 10 | 0 | 0.0 | 0.0 | 0.00 | 0.08 | 0.08 | 59 | 1018.4 |
| 20260507021503 | 10 | 0 | 0.0 | 0.0 | 0.00 | 0.08 | 0.08 | 57 | 1018.4 |
| 20260507021203 | 11 | 0 | 0.0 | 0.0 | 0.00 | 0.08 | 0.08 | 57 | 1018.4 |
| 20260507021117 | 11 | 0 | 0.0 | 0.0 | 0.00 | 0.08 | 0.08 | 57 | 1018.4 |
| 20260507020603 | 11 | 0 | 0.0 | 0.0 | 0.00 | 0.08 | 0.08 | 58 | 1018.3 |
| 20260507020303 | 11 | 0 | 0.0 | 0.0 | 0.00 | 0.08 | 0.08 | 57 | 1018.3 |
| 20260507020003 | 11 | 0 | 0.0 | 0.0 | 0.00 | 0.08 | 0.08 | 55 | 1018.3 |
| 20260507015703 | 11 | 169 | 0.0 | 1.6 | 0.00 | 0.08 | 0.08 | 55 | 1018.2 |
| 20260507015403 | 11 | 169 | 0.0 | 1.6 | 0.00 | 0.08 | 0.08 | 55 | 1018.2 |
| 20260507015103 | 11 | 169 | 0.0 | 1.6 | 0.00 | 0.08 | 0.08 | 54 | 1018.1 |
| 20260507015017 | 11 | 169 | 0.0 | 1.6 | 0.00 | 0.08 | 0.08 | 54 | 1018.1 |
| 20260507014503 | 11 | 0 | 0.0 | 0.0 | 0.00 | 0.08 | 0.08 | 54 | 1018.1 |
| 20260507014203 | 12 | 0 | 0.0 | 0.0 | 0.00 | 0.08 | 0.08 | 54 | 1018.1 |
| 20260507013903 | 12 | 0 | 0.0 | 0.0 | 0.00 | 0.08 | 0.08 | 54 | 1018.0 |
| 20260507013603 | 12 | 0 | 0.0 | 0.0 | 0.00 | 0.08 | 0.08 | 53 | 1018.0 |
| 20260507013303 | 12 | 0 | 0.0 | 0.0 | 0.00 | 0.08 | 0.08 | 52 | 1018.0 |
| 20260507013003 | 12 | 0 | 0.0 | 0.0 | 0.00 | 0.08 | 0.08 | 51 | 1018.0 |
| 20260507012918 | 12 | 0 | 0.0 | 0.0 | 0.00 | 0.08 | 0.08 | 51 | 1018.0 |
| 20260507012403 | 13 | 169 | 0.0 | 1.6 | 0.00 | 0.08 | 0.08 | 49 | 1018.0 |
| 20260507012317 | 13 | 169 | 0.0 | 1.6 | 0.00 | 0.08 | 0.08 | 49 | 1017.9 |
| 20260507012017 | 13 | 169 | 0.0 | 1.6 | 0.00 | 0.08 | 0.08 | 49 | 1017.9 |
| 20260507011503 | 13 | 169 | 0.0 | 1.6 | 0.00 | 0.08 | 0.08 | 47 | 1017.8 |
| 20260507011203 | 13 | 169 | 0.0 | 1.6 | 0.00 | 0.08 | 0.08 | 47 | 1017.7 |
| 20260507010903 | 13 | 168 | 0.0 | 1.6 | 0.00 | 0.08 | 0.08 | 46 | 1017.7 |
| 20260507010816 | 13 | 168 | 0.0 | 1.6 | 0.00 | 0.08 | 0.08 | 46 | 1017.7 |
| 20260507010303 | 14 | 188 | 0.0 | 1.6 | 0.00 | 0.08 | 0.08 | 44 | 1017.7 |
| 20260507010003 | 14 | 183 | 0.0 | 3.2 | 0.00 | 0.08 | 0.08 | 44 | 1017.7 |
| 20260507005703 | 15 | 179 | 1.6 | 4.8 | 0.00 | 0.08 | 0.08 | 44 | 1017.7 |
| 20260507005403 | 15 | 177 | 1.6 | 4.8 | 0.00 | 0.08 | 0.08 | 43 | 1017.7 |
| 20260507005103 | 15 | 173 | 0.0 | 4.8 | 0.00 | 0.08 | 0.08 | 42 | 1017.7 |
| 20260507004803 | 15 | 178 | 0.0 | 3.2 | 0.00 | 0.08 | 0.08 | 42 | 1017.7 |
| 20260507004717 | 15 | 181 | 0.0 | 3.2 | 0.00 | 0.08 | 0.08 | 42 | 1017.7 |
| 20260507004417 | 15 | 193 | 1.6 | 8.0 | 0.00 | 0.08 | 0.08 | 43 | 1017.6 |
| 20260507003903 | 15 | 190 | 1.6 | 8.0 | 0.00 | 0.08 | 0.08 | 42 | 1017.6 |
| 20260507003603 | 15 | 185 | 3.2 | 8.0 | 0.00 | 0.08 | 0.08 | 40 | 1017.6 |
| 20260507003303 | 15 | 192 | 3.2 | 9.7 | 0.00 | 0.08 | 0.08 | 40 | 1017.5 |
| 20260507003003 | 15 | 190 | 3.2 | 9.7 | 0.00 | 0.08 | 0.08 | 41 | 1017.6 |
| 20260507002703 | 15 | 194 | 3.2 | 9.7 | 0.00 | 0.08 | 0.08 | 40 | 1017.6 |
| 20260507002404 | 15 | 191 | 3.2 | 9.7 | 0.00 | 0.08 | 0.08 | 40 | 1017.6 |
| 20260507002317 | 15 | 181 | 3.2 | 9.7 | 0.00 | 0.08 | 0.08 | 39 | 1017.6 |
| 20260507001803 | 15 | 182 | 3.2 | 11.3 | 0.00 | 0.08 | 0.08 | 40 | 1017.5 |
| 20260507001503 | 15 | 176 | 4.8 | 11.3 | 0.00 | 0.08 | 0.08 | 39 | 1017.5 |
| 20260507001203 | 15 | 176 | 4.8 | 11.3 | 0.00 | 0.08 | 0.08 | 39 | 1017.5 |
| 20260507000903 | 15 | 187 | 4.8 | 11.3 | 0.00 | 0.08 | 0.08 | 40 | 1017.5 |
| 20260507000603 | 15 | 179 | 4.8 | 11.3 | 0.00 | 0.08 | 0.08 | 39 | 1017.5 |
| 20260507000303 | 15 | 208 | 4.8 | 11.3 | 0.00 | 0.08 | 0.08 | 38 | 1017.5 |
| 20260507000003 | 15 | 199 | 4.8 | 11.3 | 0.00 | 0.08 | 0.08 | 39 | 1017.5 |
| 20260506235703 | 15 | 266 | 6.4 | 12.9 | 0.00 | 0.08 | 0.08 | 38 | 1017.5 |
| 20260506235403 | 15 | 280 | 6.4 | 12.9 | 0.00 | 0.08 | 0.08 | 39 | 1017.5 |
| 20260506235103 | 15 | 273 | 4.8 | 12.9 | 0.00 | 0.08 | 0.08 | 38 | 1017.5 |
| 20260506234803 | 15 | 234 | 4.8 | 11.3 | 0.00 | 0.08 | 0.08 | 38 | 1017.5 |
| 20260506234718 | 16 | 213 | 4.8 | 11.3 | 0.00 | 0.08 | 0.08 | 38 | 1017.6 |
| 20260506234418 | 16 | 173 | 3.2 | 9.7 | 0.00 | 0.08 | 0.08 | 39 | 1017.6 |
| 20260506233903 | 16 | 187 | 3.2 | 11.3 | 0.00 | 0.08 | 0.08 | 38 | 1017.6 |
| 20260506233818 | 16 | 186 | 3.2 | 11.3 | 0.00 | 0.08 | 0.08 | 38 | 1017.6 |
| 20260506233303 | 16 | 210 | 4.8 | 11.3 | 0.00 | 0.08 | 0.08 | 38 | 1017.6 |
| 20260506233003 | 16 | 230 | 3.2 | 11.3 | 0.00 | 0.08 | 0.08 | 38 | 1017.6 |
| 20260506232703 | 16 | 235 | 4.8 | 11.3 | 0.00 | 0.08 | 0.08 | 37 | 1017.5 |
| 20260506232403 | 16 | 249 | 4.8 | 11.3 | 0.00 | 0.08 | 0.08 | 36 | 1017.6 |
| 20260506232103 | 16 | 194 | 3.2 | 9.7 | 0.00 | 0.08 | 0.08 | 38 | 1017.5 |
| 20260506231803 | 16 | 217 | 4.8 | 12.9 | 0.00 | 0.08 | 0.08 | 38 | 1017.5 |
| 20260506231718 | 16 | 266 | 4.8 | 16.1 | 0.00 | 0.08 | 0.08 | 37 | 1017.5 |
| 20260506231203 | 15 | 318 | 6.4 | 17.7 | 0.00 | 0.08 | 0.08 | 39 | 1017.5 |
| 20260506230903 | 15 | 317 | 8.0 | 17.7 | 0.00 | 0.08 | 0.08 | 37 | 1017.4 |
| 20260506230603 | 15 | 312 | 8.0 | 17.7 | 0.00 | 0.08 | 0.08 | 38 | 1017.5 |
| 20260506230517 | 15 | 320 | 8.0 | 17.7 | 0.00 | 0.08 | 0.08 | 38 | 1017.5 |
| 20260506230003 | 15 | 298 | 6.4 | 17.7 | 0.00 | 0.08 | 0.08 | 38 | 1017.5 |
| 20260506225703 | 16 | 283 | 6.4 | 12.9 | 0.00 | 0.08 | 0.08 | 38 | 1017.5 |
| 20260506225403 | 16 | 261 | 4.8 | 12.9 | 0.00 | 0.08 | 0.08 | 38 | 1017.6 |
| 20260506225103 | 16 | 269 | 6.4 | 12.9 | 0.00 | 0.08 | 0.08 | 36 | 1017.5 |
| 20260506224803 | 16 | 243 | 6.4 | 12.9 | 0.00 | 0.08 | 0.08 | 38 | 1017.5 |
| 20260506224503 | 16 | 239 | 6.4 | 16.1 | 0.00 | 0.08 | 0.08 | 38 | 1017.5 |
| 20260506224203 | 16 | 238 | 6.4 | 16.1 | 0.00 | 0.08 | 0.08 | 37 | 1017.5 |
| 20260506224118 | 16 | 228 | 4.8 | 16.1 | 0.00 | 0.08 | 0.08 | 37 | 1017.5 |
| 20260506223603 | 16 | 276 | 6.4 | 16.1 | 0.00 | 0.08 | 0.08 | 39 | 1017.4 |
| 20260506223303 | 16 | 301 | 6.4 | 17.7 | 0.00 | 0.08 | 0.08 | 38 | 1017.4 |
| 20260506223217 | 16 | 308 | 6.4 | 17.7 | 0.00 | 0.08 | 0.08 | 38 | 1017.5 |
| 20260506222703 | 16 | 284 | 6.4 | 17.7 | 0.00 | 0.08 | 0.08 | 37 | 1017.4 |
| 20260506222403 | 16 | 196 | 4.8 | 12.9 | 0.00 | 0.08 | 0.08 | 38 | 1017.4 |
| 20260506222103 | 16 | 206 | 4.8 | 12.9 | 0.00 | 0.08 | 0.08 | 38 | 1017.5 |
| 20260506221803 | 16 | 206 | 4.8 | 12.9 | 0.00 | 0.08 | 0.08 | 38 | 1017.5 |
| 20260506221504 | 16 | 296 | 6.4 | 14.5 | 0.00 | 0.08 | 0.08 | 39 | 1017.5 |
| 20260506221203 | 16 | 328 | 6.4 | 24.1 | 0.00 | 0.08 | 0.08 | 41 | 1017.5 |
| 20260506221117 | 16 | 326 | 8.0 | 24.1 | 0.00 | 0.08 | 0.08 | 41 | 1017.5 |
| 20260506220603 | 16 | 348 | 8.0 | 24.1 | 0.00 | 0.08 | 0.08 | 37 | 1017.6 |
| 20260506220303 | 16 | 285 | 6.4 | 14.5 | 0.00 | 0.08 | 0.08 | 38 | 1017.6 |
| 20260506220003 | 16 | 227 | 4.8 | 14.5 | 0.00 | 0.08 | 0.08 | 39 | 1017.6 |
| 20260506215703 | 16 | 301 | 6.4 | 19.3 | 0.00 | 0.08 | 0.08 | 39 | 1017.6 |
| 20260506215403 | 16 | 322 | 6.4 | 19.3 | 0.00 | 0.08 | 0.08 | 39 | 1017.6 |
| 20260506215318 | 16 | 321 | 6.4 | 19.3 | 0.00 | 0.08 | 0.08 | 39 | 1017.6 |
| 20260506214803 | 16 | 316 | 6.4 | 19.3 | 0.00 | 0.08 | 0.08 | 39 | 1017.7 |
| 20260506214503 | 16 | 258 | 4.8 | 17.7 | 0.00 | 0.08 | 0.08 | 39 | 1017.8 |
| 20260506214203 | 16 | 300 | 6.4 | 17.7 | 0.00 | 0.08 | 0.08 | 39 | 1017.8 |
| 20260506213903 | 16 | 299 | 6.4 | 17.7 | 0.00 | 0.08 | 0.08 | 38 | 1017.8 |
| 20260506213603 | 16 | 316 | 9.7 | 19.3 | 0.00 | 0.08 | 0.08 | 40 | 1017.9 |
| 20260506213303 | 16 | 312 | 9.7 | 19.3 | 0.00 | 0.08 | 0.08 | 38 | 1017.9 |
| 20260506213217 | 16 | 311 | 8.0 | 19.3 | 0.00 | 0.08 | 0.08 | 38 | 1017.9 |
| 20260506212703 | 16 | 294 | 8.0 | 19.3 | 0.00 | 0.08 | 0.08 | 36 | 1018.0 |
| 20260506212618 | 16 | 281 | 6.4 | 19.3 | 0.00 | 0.08 | 0.08 | 39 | 1018.0 |
| 20260506212103 | 16 | 293 | 6.4 | 19.3 | 0.00 | 0.08 | 0.08 | 40 | 1018.0 |
| 20260506211803 | 16 | 269 | 6.4 | 19.3 | 0.00 | 0.08 | 0.08 | 37 | 1018.0 |
| 20260506211503 | 16 | 279 | 6.4 | 17.7 | 0.00 | 0.08 | 0.08 | 40 | 1018.0 |
| 20260506211417 | 16 | 287 | 6.4 | 17.7 | 0.00 | 0.08 | 0.08 | 41 | 1018.0 |
| 20260506210903 | 16 | 246 | 4.8 | 17.7 | 0.00 | 0.08 | 0.08 | 36 | 1018.1 |
| 20260506210817 | 16 | 252 | 6.4 | 17.7 | 0.00 | 0.08 | 0.08 | 36 | 1018.1 |
| 20260506210303 | 16 | 332 | 6.4 | 19.3 | 0.00 | 0.08 | 0.08 | 39 | 1018.3 |
| 20260506210003 | 15 | 339 | 8.0 | 19.3 | 0.00 | 0.08 | 0.08 | 41 | 1018.2 |
| 20260506205703 | 15 | 343 | 6.4 | 19.3 | 0.00 | 0.10 | 0.08 | 40 | 1018.3 |
| 20260506205403 | 16 | 305 | 4.8 | 19.3 | 0.00 | 0.10 | 0.08 | 37 | 1018.3 |
| 20260506205103 | 16 | 271 | 4.8 | 11.3 | 0.00 | 0.10 | 0.08 | 40 | 1018.3 |
| 20260506204803 | 16 | 242 | 4.8 | 11.3 | 0.00 | 0.10 | 0.08 | 40 | 1018.4 |
| 20260506204503 | 16 | 301 | 4.8 | 16.1 | 0.00 | 0.10 | 0.08 | 41 | 1018.3 |
| 20260506204203 | 16 | 334 | 6.4 | 20.9 | 0.00 | 0.10 | 0.08 | 40 | 1018.3 |
| 20260506203903 | 15 | 321 | 8.0 | 20.9 | 0.00 | 0.13 | 0.08 | 39 | 1018.4 |
| 20260506203603 | 15 | 306 | 8.0 | 20.9 | 0.00 | 0.15 | 0.08 | 40 | 1018.4 |
| 20260506203303 | 16 | 269 | 6.4 | 20.9 | 0.00 | 0.15 | 0.08 | 38 | 1018.4 |
| 20260506203003 | 16 | 223 | 4.8 | 12.9 | 0.00 | 0.15 | 0.08 | 41 | 1018.5 |
| 20260506202703 | 16 | 222 | 4.8 | 12.9 | 0.00 | 0.15 | 0.08 | 38 | 1018.5 |
| 20260506202403 | 16 | 229 | 4.8 | 14.5 | 0.00 | 0.15 | 0.08 | 38 | 1018.5 |
| 20260506202317 | 16 | 224 | 4.8 | 14.5 | 0.00 | 0.18 | 0.08 | 40 | 1018.5 |
| 20260506201803 | 15 | 291 | 6.4 | 17.7 | 0.00 | 0.18 | 0.08 | 37 | 1018.5 |
| 20260506201503 | 15 | 288 | 6.4 | 17.7 | 0.00 | 0.18 | 0.08 | 39 | 1018.5 |
| 20260506201203 | 15 | 246 | 4.8 | 17.7 | 0.00 | 0.18 | 0.08 | 36 | 1018.6 |
| 20260506200903 | 16 | 171 | 4.8 | 12.9 | 0.00 | 0.18 | 0.08 | 38 | 1018.6 |
| 20260506200603 | 16 | 202 | 4.8 | 14.5 | 0.00 | 0.18 | 0.08 | 41 | 1018.5 |
| 20260506200303 | 16 | 286 | 6.4 | 25.7 | 0.00 | 0.18 | 0.08 | 39 | 1018.6 |
| 20260506200003 | 15 | 290 | 6.4 | 25.7 | 0.00 | 0.20 | 0.08 | 38 | 1018.5 |